Time,TemperatureF,DewpointF,PressureIn,WindDirection,WindDirectionDegrees,WindSpeedMPH,WindSpeedGustMPH,Humidity,HourlyPrecipIn,Conditions,Clouds,dailyrainin,SoftwareType,DateUTC
2013-07-21 00:00:00,76.8,74.6,29.96,WNW,282,0.0,3.0,93,0.00,,---,0.00,VWS V14.01,2013-07-21 04:00:00,
2013-07-21 00:01:00,76.8,74.6,29.96,WNW,282,0.0,3.0,93,0.00,,---,0.00,VWS V14.01,2013-07-21 04:01:00,
2013-07-21 00:06:00,76.8,74.6,29.95,SSW,199,0.0,2.0,93,0.00,,---,0.00,VWS V14.01,2013-07-21 04:06:00,
2013-07-21 00:11:00,76.8,74.6,29.95,WSW,250,0.0,2.0,93,0.00,,---,0.00,VWS V14.01,2013-07-21 04:11:00,
2013-07-21 00:16:00,76.8,74.3,29.95,WSW,250,0.0,0.0,92,0.00,,---,0.00,VWS V14.01,2013-07-21 04:16:00,
2013-07-21 00:21:00,76.8,74.3,29.95,WSW,250,0.0,0.0,92,0.00,,---,0.00,VWS V14.01,2013-07-21 04:21:00,
2013-07-21 00:26:00,76.8,74.6,29.95,WSW,250,0.0,0.0,93,0.00,,---,0.00,VWS V14.01,2013-07-21 04:26:00,
2013-07-21 00:31:00,76.8,74.3,29.95,WSW,251,0.0,0.0,92,0.00,,---,0.00,VWS V14.01,2013-07-21 04:31:00,
2013-07-21 00:36:00,76.7,74.2,29.95,WSW,251,0.0,0.0,92,0.00,,---,0.00,VWS V14.01,2013-07-21 04:36:00,
2013-07-21 00:41:00,76.7,74.2,29.95,WSW,251,0.0,0.0,92,0.00,,---,0.00,VWS V14.01,2013-07-21 04:41:00,
2013-07-21 00:46:00,76.7,74.5,29.95,WSW,256,1.0,5.0,93,0.00,,---,0.00,VWS V14.01,2013-07-21 04:46:00,
2013-07-21 00:51:00,76.7,74.5,29.95,NNW,332,0.0,5.0,93,0.00,,---,0.00,VWS V14.01,2013-07-21 04:51:00,
2013-07-21 00:56:00,76.7,74.5,29.95,NNW,332,0.0,0.0,93,0.00,,---,0.00,VWS V14.01,2013-07-21 04:56:00,
2013-07-21 01:01:00,76.7,74.5,29.95,NNW,333,0.0,0.0,93,0.00,,---,0.00,VWS V14.01,2013-07-21 05:01:00,
2013-07-21 01:06:00,76.7,74.5,29.95,West,271,0.0,0.0,93,0.00,,---,0.00,VWS V14.01,2013-07-21 05:06:00,
2013-07-21 01:11:00,76.7,74.5,29.95,West,271,0.0,0.0,93,0.00,,---,0.00,VWS V14.01,2013-07-21 05:11:00,
2013-07-21 01:16:00,76.7,74.5,29.95,SSE,157,0.0,0.0,93,0.00,,---,0.00,VWS V14.01,2013-07-21 05:16:00,
2013-07-21 01:21:00,76.7,74.5,29.94,SSE,152,0.0,0.0,93,0.00,,---,0.00,VWS V14.01,2013-07-21 05:21:00,
2013-07-21 01:26:00,76.7,74.5,29.94,South,172,0.0,0.0,93,0.00,,---,0.00,VWS V14.01,2013-07-21 05:26:00,
2013-07-21 01:31:00,76.7,74.5,29.94,South,172,0.0,0.0,93,0.00,,---,0.00,VWS V14.01,2013-07-21 05:31:00,
2013-07-21 01:36:00,76.7,74.5,29.94,South,172,0.0,0.0,93,0.00,,---,0.00,VWS V14.01,2013-07-21 05:36:00,
2013-07-21 01:41:00,76.7,74.5,29.94,South,172,0.0,0.0,93,0.00,,---,0.00,VWS V14.01,2013-07-21 05:41:00,
2013-07-21 01:46:00,76.7,74.5,29.94,South,172,0.0,0.0,93,0.00,,---,0.00,VWS V14.01,2013-07-21 05:46:00,
2013-07-21 01:51:00,76.7,74.5,29.93,South,172,0.0,0.0,93,0.00,,---,0.00,VWS V14.01,2013-07-21 05:51:00,
2013-07-21 01:56:00,76.7,74.5,29.93,South,172,0.0,0.0,93,0.00,,---,0.00,VWS V14.01,2013-07-21 05:56:00,
2013-07-21 02:01:00,76.7,74.5,29.93,South,172,0.0,0.0,93,0.00,,---,0.00,VWS V14.01,2013-07-21 06:01:00,
2013-07-21 02:06:00,76.5,74.3,29.92,South,172,0.0,0.0,93,0.00,,---,0.00,VWS V14.01,2013-07-21 06:06:00,
2013-07-21 02:11:00,76.5,74.3,29.92,South,172,0.0,0.0,93,0.00,,---,0.00,VWS V14.01,2013-07-21 06:11:00,
2013-07-21 02:16:00,76.5,74.3,29.92,South,172,0.0,0.0,93,0.00,,---,0.00,VWS V14.01,2013-07-21 06:16:00,
2013-07-21 02:21:00,76.5,74.7,29.91,South,172,0.0,0.0,94,0.00,,---,0.00,VWS V14.01,2013-07-21 06:21:00,
2013-07-21 02:26:00,76.5,74.7,29.91,South,172,0.0,0.0,94,0.00,,---,0.00,VWS V14.01,2013-07-21 06:26:00,
2013-07-21 02:31:00,76.3,74.1,29.91,South,172,0.0,0.0,93,0.00,,---,0.00,VWS V14.01,2013-07-21 06:31:00,
2013-07-21 02:36:00,76.3,74.4,29.91,South,172,0.0,0.0,94,0.00,,---,0.00,VWS V14.01,2013-07-21 06:36:00,
2013-07-21 02:41:00,76.3,74.4,29.91,South,172,0.0,0.0,94,0.00,,---,0.00,VWS V14.01,2013-07-21 06:41:00,
2013-07-21 02:46:00,76.3,74.4,29.91,South,172,0.0,0.0,94,0.00,,---,0.00,VWS V14.01,2013-07-21 06:46:00,
2013-07-21 02:51:00,76.3,74.4,29.92,West,271,0.0,2.0,94,0.00,,---,0.00,VWS V14.01,2013-07-21 06:51:00,
2013-07-21 02:56:00,76.3,74.4,29.92,West,271,0.0,0.0,94,0.00,,---,0.00,VWS V14.01,2013-07-21 06:56:00,
2013-07-21 03:01:00,76.1,74.6,29.92,NW,304,0.0,2.0,95,0.00,,---,0.00,VWS V14.01,2013-07-21 07:01:00,
2013-07-21 03:06:00,76.1,74.6,29.91,NW,304,0.0,0.0,95,0.00,,---,0.00,VWS V14.01,2013-07-21 07:06:00,
2013-07-21 03:11:00,76.1,74.2,29.91,SW,229,0.0,0.0,94,0.00,,---,0.00,VWS V14.01,2013-07-21 07:11:00,
2013-07-21 03:16:00,76.0,74.5,29.91,SW,229,0.0,0.0,95,0.00,,---,0.00,VWS V14.01,2013-07-21 07:16:00,
2013-07-21 03:21:00,76.0,74.5,29.91,SW,229,0.0,0.0,95,0.00,,---,0.00,VWS V14.01,2013-07-21 07:21:00,
2013-07-21 03:26:00,76.0,74.5,29.91,West,275,0.0,0.0,95,0.00,,---,0.00,VWS V14.01,2013-07-21 07:26:00,
2013-07-21 03:31:00,76.0,74.5,29.91,SW,219,0.0,0.0,95,0.00,,---,0.00,VWS V14.01,2013-07-21 07:31:00,
2013-07-21 03:36:00,75.8,74.3,29.91,SW,219,0.0,0.0,95,0.00,,---,0.00,VWS V14.01,2013-07-21 07:36:00,
2013-07-21 03:41:00,75.8,74.3,29.91,SW,219,0.0,0.0,95,0.00,,---,0.00,VWS V14.01,2013-07-21 07:41:00,
2013-07-21 03:46:00,75.8,74.3,29.91,SW,220,0.0,0.0,95,0.00,,---,0.00,VWS V14.01,2013-07-21 07:46:00,
2013-07-21 03:51:00,75.8,74.3,29.91,SW,220,0.0,0.0,95,0.00,,---,0.00,VWS V14.01,2013-07-21 07:51:00,
2013-07-21 03:56:00,75.8,74.3,29.91,SW,220,0.0,0.0,95,0.00,,---,0.00,VWS V14.01,2013-07-21 07:56:00,
2013-07-21 04:01:00,75.8,74.3,29.91,North,0,0.0,1.0,95,0.00,,---,0.00,VWS V14.01,2013-07-21 08:01:00,
2013-07-21 04:06:00,75.8,74.3,29.90,West,280,0.0,0.0,95,0.00,,---,0.00,VWS V14.01,2013-07-21 08:06:00,
2013-07-21 04:11:00,75.8,74.3,29.90,West,280,0.0,0.0,95,0.00,,---,0.00,VWS V14.01,2013-07-21 08:11:00,
2013-07-21 04:16:00,75.6,73.8,29.90,West,264,0.0,3.0,94,0.00,,---,0.00,VWS V14.01,2013-07-21 08:16:00,
2013-07-21 04:21:00,75.6,73.8,29.91,SW,227,0.0,3.0,94,0.00,,---,0.00,VWS V14.01,2013-07-21 08:21:00,
2013-07-21 04:26:00,75.6,73.8,29.91,West,277,0.0,0.0,94,0.00,,---,0.00,VWS V14.01,2013-07-21 08:26:00,
2013-07-21 04:31:00,75.6,73.8,29.91,West,277,0.0,0.0,94,0.00,,---,0.00,VWS V14.01,2013-07-21 08:31:00,
2013-07-21 04:36:00,75.6,73.8,29.90,West,277,0.0,0.0,94,0.00,,---,0.00,VWS V14.01,2013-07-21 08:36:00,
2013-07-21 04:41:00,75.4,73.6,29.90,West,277,0.0,0.0,94,0.00,,---,0.00,VWS V14.01,2013-07-21 08:41:00,
2013-07-21 04:46:00,75.4,73.6,29.90,West,277,0.0,0.0,94,0.00,,---,0.00,VWS V14.01,2013-07-21 08:46:00,
2013-07-21 04:51:00,75.4,73.6,29.90,West,277,0.0,0.0,94,0.00,,---,0.00,VWS V14.01,2013-07-21 08:51:00,
2013-07-21 04:56:00,75.4,73.6,29.90,West,277,0.0,0.0,94,0.00,,---,0.00,VWS V14.01,2013-07-21 08:56:00,
2013-07-21 05:01:00,75.4,73.2,29.90,West,277,0.0,0.0,93,0.00,,---,0.00,VWS V14.01,2013-07-21 09:01:00,
2013-07-21 05:06:00,75.4,73.2,29.90,West,277,0.0,0.0,93,0.00,,---,0.00,VWS V14.01,2013-07-21 09:06:00,
2013-07-21 05:11:00,75.4,73.2,29.90,West,277,0.0,0.0,93,0.00,,---,0.00,VWS V14.01,2013-07-21 09:11:00,
2013-07-21 05:16:00,75.4,73.6,29.90,West,277,0.0,0.0,94,0.00,,---,0.00,VWS V14.01,2013-07-21 09:16:00,
2013-07-21 05:21:00,75.4,73.6,29.90,West,277,0.0,0.0,94,0.00,,---,0.00,VWS V14.01,2013-07-21 09:21:00,
2013-07-21 05:26:00,75.4,73.6,29.90,West,271,0.0,2.0,94,0.00,,---,0.00,VWS V14.01,2013-07-21 09:26:00,
2013-07-21 05:31:00,75.4,73.6,29.90,West,271,0.0,2.0,94,0.00,,---,0.00,VWS V14.01,2013-07-21 09:31:00,
2013-07-21 05:36:00,75.4,73.2,29.91,NW,315,0.0,1.0,93,0.00,,---,0.00,VWS V14.01,2013-07-21 09:36:00,
2013-07-21 05:41:00,75.4,73.2,29.91,NW,315,0.0,1.0,93,0.00,,---,0.00,VWS V14.01,2013-07-21 09:41:00,
2013-07-21 05:46:00,75.4,73.6,29.91,North,357,0.0,0.0,94,0.00,,---,0.00,VWS V14.01,2013-07-21 09:46:00,
2013-07-21 05:51:00,75.4,73.6,29.91,North,357,0.0,0.0,94,0.00,,---,0.00,VWS V14.01,2013-07-21 09:51:00,
2013-07-21 05:56:00,75.4,73.6,29.91,North,357,0.0,0.0,94,0.00,,---,0.00,VWS V14.01,2013-07-21 09:56:00,
2013-07-21 06:01:00,75.4,73.6,29.91,North,357,0.0,0.0,94,0.00,,---,0.00,VWS V14.01,2013-07-21 10:01:00,
2013-07-21 06:06:00,75.4,73.6,29.91,West,277,0.0,0.0,94,0.00,,---,0.00,VWS V14.01,2013-07-21 10:06:00,
2013-07-21 06:11:00,75.3,73.5,29.91,WNW,282,0.0,0.0,94,0.00,,---,0.00,VWS V14.01,2013-07-21 10:11:00,
2013-07-21 06:16:00,75.3,73.5,29.91,WNW,282,0.0,0.0,94,0.00,,---,0.00,VWS V14.01,2013-07-21 10:16:00,
2013-07-21 06:21:00,75.3,73.8,29.91,WNW,282,0.0,0.0,95,0.00,,---,0.00,VWS V14.01,2013-07-21 10:21:00,
2013-07-21 06:26:00,75.3,73.8,29.91,WNW,282,0.0,0.0,95,0.00,,---,0.00,VWS V14.01,2013-07-21 10:26:00,
2013-07-21 06:31:00,75.3,73.8,29.91,WNW,282,0.0,0.0,95,0.00,,---,0.00,VWS V14.01,2013-07-21 10:31:00,
2013-07-21 06:36:00,75.3,73.8,29.92,WNW,282,0.0,0.0,95,0.00,,---,0.00,VWS V14.01,2013-07-21 10:36:00,
2013-07-21 06:41:00,75.3,73.8,29.92,WNW,282,0.0,0.0,95,0.00,,---,0.00,VWS V14.01,2013-07-21 10:41:00,
2013-07-21 06:46:00,75.1,73.9,29.92,WNW,282,0.0,0.0,96,0.00,,---,0.00,VWS V14.01,2013-07-21 10:46:00,
2013-07-21 06:51:00,75.1,73.9,29.92,WNW,282,0.0,0.0,96,0.00,,---,0.00,VWS V14.01,2013-07-21 10:51:00,
2013-07-21 06:56:00,75.1,73.9,29.92,WNW,282,0.0,0.0,96,0.00,,---,0.00,VWS V14.01,2013-07-21 10:56:00,
2013-07-21 07:01:00,75.1,74.2,29.92,WNW,282,0.0,0.0,97,0.00,,---,0.00,VWS V14.01,2013-07-21 11:01:00,
2013-07-21 07:06:00,75.1,74.2,29.92,WNW,282,0.0,0.0,97,0.00,,---,0.00,VWS V14.01,2013-07-21 11:06:00,
2013-07-21 07:11:00,75.1,74.2,29.92,WNW,282,0.0,0.0,97,0.00,,---,0.00,VWS V14.01,2013-07-21 11:11:00,
2013-07-21 07:16:00,75.1,74.2,29.92,WNW,282,0.0,0.0,97,0.00,,---,0.00,VWS V14.01,2013-07-21 11:16:00,
2013-07-21 07:21:00,74.9,74.3,29.92,WNW,282,0.0,0.0,98,0.00,,---,0.00,VWS V14.01,2013-07-21 11:21:00,
2013-07-21 07:26:00,74.9,74.3,29.92,WNW,282,0.0,0.0,98,0.00,,---,0.00,VWS V14.01,2013-07-21 11:26:00,
2013-07-21 07:31:00,74.9,74.3,29.92,WNW,282,0.0,0.0,98,0.00,,---,0.00,VWS V14.01,2013-07-21 11:31:00,
2013-07-21 07:36:00,74.9,74.3,29.92,WNW,282,0.0,0.0,98,0.00,,---,0.00,VWS V14.01,2013-07-21 11:36:00,
2013-07-21 07:40:00,74.9,74.3,29.92,WNW,282,0.0,0.0,98,0.00,,---,0.00,VWS V14.01,2013-07-21 11:40:00,
2013-07-21 07:45:00,74.9,74.3,29.92,WNW,282,0.0,0.0,98,0.00,,---,0.00,VWS V14.01,2013-07-21 11:45:00,
2013-07-21 07:50:00,74.9,74.0,29.93,WNW,282,0.0,0.0,97,0.00,,---,0.00,VWS V14.01,2013-07-21 11:50:00,
2013-07-21 07:55:00,75.1,74.5,29.93,WNW,282,0.0,0.0,98,0.00,,---,0.00,VWS V14.01,2013-07-21 11:55:00,
2013-07-21 08:00:00,75.1,74.2,29.93,WNW,282,0.0,0.0,97,0.00,,---,0.00,VWS V14.01,2013-07-21 12:00:00,
2013-07-21 08:05:00,75.1,74.2,29.94,WNW,282,0.0,0.0,97,0.00,,---,0.00,VWS V14.01,2013-07-21 12:05:00,
2013-07-21 08:10:00,75.3,74.4,29.94,WNW,282,0.0,0.0,97,0.00,,---,0.00,VWS V14.01,2013-07-21 12:10:00,
2013-07-21 08:15:00,75.3,74.4,29.94,WNW,282,0.0,0.0,97,0.00,,---,0.00,VWS V14.01,2013-07-21 12:15:00,
2013-07-21 08:20:00,75.4,74.2,29.94,North,11,0.0,0.0,96,0.00,,---,0.00,VWS V14.01,2013-07-21 12:20:00,
2013-07-21 08:25:00,75.4,74.2,29.94,North,0,0.0,0.0,96,0.00,,---,0.00,VWS V14.01,2013-07-21 12:25:00,
2013-07-21 08:30:00,75.6,74.4,29.94,North,11,0.0,0.0,96,0.00,,---,0.00,VWS V14.01,2013-07-21 12:30:00,
2013-07-21 08:35:00,75.8,74.6,29.94,WSW,257,0.0,0.0,96,0.00,,---,0.00,VWS V14.01,2013-07-21 12:35:00,
2013-07-21 08:40:00,75.8,74.6,29.94,WSW,257,0.0,0.0,96,0.00,,---,0.00,VWS V14.01,2013-07-21 12:40:00,
2013-07-21 08:45:00,76.0,74.8,29.94,WSW,257,0.0,0.0,96,0.00,,---,0.00,VWS V14.01,2013-07-21 12:45:00,
2013-07-21 08:50:00,76.3,74.8,29.94,NW,305,0.0,0.0,95,0.00,,---,0.00,VWS V14.01,2013-07-21 12:50:00,
2013-07-21 08:55:00,76.5,75.0,29.94,NW,305,0.0,0.0,95,0.00,,---,0.00,VWS V14.01,2013-07-21 12:55:00,
2013-07-21 09:00:00,76.5,74.7,29.94,NW,305,0.0,0.0,94,0.00,,---,0.00,VWS V14.01,2013-07-21 13:00:00,
2013-07-21 09:05:00,76.7,74.8,29.95,NW,305,0.0,0.0,94,0.00,,---,0.00,VWS V14.01,2013-07-21 13:05:00,
2013-07-21 09:10:00,76.7,74.5,29.95,NW,305,0.0,0.0,93,0.00,,---,0.00,VWS V14.01,2013-07-21 13:10:00,
2013-07-21 09:15:00,76.7,74.5,29.95,WNW,298,0.0,3.0,93,0.00,,---,0.00,VWS V14.01,2013-07-21 13:15:00,
2013-07-21 09:20:00,76.7,74.5,29.95,WNW,299,0.0,3.0,93,0.00,,---,0.00,VWS V14.01,2013-07-21 13:20:00,
2013-07-21 09:25:00,76.7,74.5,29.95,WNW,299,0.0,0.0,93,0.00,,---,0.00,VWS V14.01,2013-07-21 13:25:00,
2013-07-21 09:30:00,76.7,74.5,29.95,WNW,299,0.0,1.0,93,0.00,,---,0.00,VWS V14.01,2013-07-21 13:30:00,
2013-07-21 09:35:00,76.8,74.6,29.95,WNW,299,0.0,0.0,93,0.00,,---,0.00,VWS V14.01,2013-07-21 13:35:00,
2013-07-21 09:40:00,76.8,74.6,29.95,WNW,299,0.0,0.0,93,0.00,,---,0.00,VWS V14.01,2013-07-21 13:40:00,
2013-07-21 09:45:00,76.8,74.3,29.95,WNW,299,0.0,1.0,92,0.00,,---,0.00,VWS V14.01,2013-07-21 13:45:00,
2013-07-21 09:50:00,77.0,74.5,29.95,WNW,299,0.0,1.0,92,0.00,,---,0.00,VWS V14.01,2013-07-21 13:50:00,
2013-07-21 09:55:00,77.0,74.5,29.95,WNW,299,0.0,0.0,92,0.00,,---,0.00,VWS V14.01,2013-07-21 13:55:00,
2013-07-21 10:00:00,77.2,74.7,29.95,WNW,294,0.0,0.0,92,0.00,,---,0.00,VWS V14.01,2013-07-21 14:00:00,
2013-07-21 10:05:00,77.4,74.9,29.95,WNW,294,0.0,0.0,92,0.00,,---,0.00,VWS V14.01,2013-07-21 14:05:00,
2013-07-21 10:10:00,77.6,75.1,29.95,SW,227,0.0,0.0,92,0.00,,---,0.00,VWS V14.01,2013-07-21 14:10:00,
2013-07-21 10:15:00,77.6,74.4,29.95,SW,227,0.0,0.0,90,0.00,,---,0.00,VWS V14.01,2013-07-21 14:15:00,
2013-07-21 10:20:00,77.7,74.9,29.95,SW,227,0.0,0.0,91,0.00,,---,0.00,VWS V14.01,2013-07-21 14:20:00,
2013-07-21 10:25:00,77.7,74.5,29.95,SW,227,0.0,0.0,90,0.00,,---,0.00,VWS V14.01,2013-07-21 14:25:00,
2013-07-21 10:30:00,77.7,74.9,29.95,SW,230,0.0,0.0,91,0.00,,---,0.00,VWS V14.01,2013-07-21 14:30:00,
2013-07-21 10:35:00,77.9,74.7,29.95,SW,230,0.0,0.0,90,0.00,,---,0.00,VWS V14.01,2013-07-21 14:35:00,
2013-07-21 10:40:00,78.1,74.9,29.95,SE,133,0.0,0.0,90,0.00,,---,0.00,VWS V14.01,2013-07-21 14:40:00,
2013-07-21 10:45:00,78.3,75.1,29.95,SSW,206,0.0,0.0,90,0.00,,---,0.00,VWS V14.01,2013-07-21 14:45:00,
2013-07-21 10:50:00,78.5,75.0,29.95,SSW,206,0.0,1.0,89,0.00,,---,0.00,VWS V14.01,2013-07-21 14:50:00,
2013-07-21 10:55:00,78.6,75.4,29.95,SSW,206,0.0,0.0,90,0.00,,---,0.00,VWS V14.01,2013-07-21 14:55:00,
2013-07-21 11:00:00,79.2,75.3,29.95,South,175,0.0,0.0,88,0.00,,---,0.00,VWS V14.01,2013-07-21 15:00:00,
2013-07-21 11:05:00,79.6,75.4,29.95,NNE,13,0.0,0.0,87,0.00,,---,0.00,VWS V14.01,2013-07-21 15:05:00,
2013-07-21 11:10:00,79.9,75.3,29.95,WNW,298,0.0,2.0,86,0.00,,---,0.00,VWS V14.01,2013-07-21 15:10:00,
2013-07-21 11:15:00,80.1,75.2,29.95,NW,312,0.0,3.0,85,0.00,,---,0.00,VWS V14.01,2013-07-21 15:15:00,
2013-07-21 11:20:00,80.3,75.7,29.95,WNW,301,0.0,3.0,86,0.00,,---,0.00,VWS V14.01,2013-07-21 15:20:00,
2013-07-21 11:25:00,80.5,75.6,29.95,South,191,0.0,5.0,85,0.00,,---,0.00,VWS V14.01,2013-07-21 15:25:00,
2013-07-21 11:30:00,80.5,75.6,29.95,WNW,298,0.0,5.0,85,0.00,,---,0.00,VWS V14.01,2013-07-21 15:30:00,
2013-07-21 11:35:00,80.5,75.6,29.95,NNE,30,0.0,0.0,85,0.00,,---,0.00,VWS V14.01,2013-07-21 15:35:00,
2013-07-21 11:40:00,80.7,75.8,29.95,SSE,147,0.0,5.0,85,0.00,,---,0.00,VWS V14.01,2013-07-21 15:40:00,
2013-07-21 11:45:00,80.9,75.6,29.95,SSW,196,2.0,3.0,84,0.00,,---,0.00,VWS V14.01,2013-07-21 15:45:00,
2013-07-21 11:50:00,81.1,75.4,29.94,WSW,256,0.0,3.0,83,0.00,,---,0.00,VWS V14.01,2013-07-21 15:50:00,
2013-07-21 11:55:00,81.2,75.6,29.94,WNW,296,0.0,1.0,83,0.00,,---,0.00,VWS V14.01,2013-07-21 15:55:00,
2013-07-21 12:00:00,81.2,75.2,29.94,West,275,0.0,1.0,82,0.00,,---,0.00,VWS V14.01,2013-07-21 16:00:00,
2013-07-21 12:05:00,81.2,75.6,29.94,West,274,0.0,0.0,83,0.00,,---,0.00,VWS V14.01,2013-07-21 16:05:00,
2013-07-21 12:10:00,81.2,75.6,29.94,West,274,0.0,0.0,83,0.00,,---,0.00,VWS V14.01,2013-07-21 16:10:00,
2013-07-21 12:15:00,81.1,75.8,29.94,West,278,2.0,3.0,84,0.00,,---,0.00,VWS V14.01,2013-07-21 16:15:00,
2013-07-21 12:20:00,81.2,76.6,29.94,West,278,0.0,3.0,86,0.00,,---,0.00,VWS V14.01,2013-07-21 16:20:00,
2013-07-21 12:25:00,81.8,76.1,29.94,WNW,291,0.0,3.0,83,0.00,,---,0.00,VWS V14.01,2013-07-21 16:25:00,
2013-07-21 12:30:00,82.6,76.2,29.94,WSW,257,0.0,3.0,81,0.00,,---,0.00,VWS V14.01,2013-07-21 16:30:00,
2013-07-21 12:35:00,83.0,76.9,29.94,North,0,0.0,1.0,82,0.00,,---,0.00,VWS V14.01,2013-07-21 16:35:00,
2013-07-21 12:40:00,83.2,76.4,29.94,NE,41,0.0,1.0,80,0.00,,---,0.00,VWS V14.01,2013-07-21 16:40:00,
2013-07-21 12:45:00,83.2,76.0,29.94,West,272,0.0,0.0,79,0.00,,---,0.00,VWS V14.01,2013-07-21 16:45:00,
2013-07-21 12:50:00,83.2,76.8,29.94,West,272,0.0,0.0,81,0.00,,---,0.00,VWS V14.01,2013-07-21 16:50:00,
2013-07-21 12:55:00,83.0,76.6,29.94,West,268,0.0,0.0,81,0.00,,---,0.00,VWS V14.01,2013-07-21 16:55:00,
2013-07-21 13:00:00,82.8,76.4,29.94,West,268,0.0,0.0,81,0.00,,---,0.00,VWS V14.01,2013-07-21 17:00:00,
2013-07-21 13:05:00,83.2,76.8,29.92,SW,219,0.0,0.0,81,0.00,,---,0.00,VWS V14.01,2013-07-21 17:05:00,
2013-07-21 13:10:00,83.8,76.6,29.92,SSW,196,0.0,5.0,79,0.00,,---,0.00,VWS V14.01,2013-07-21 17:10:00,
2013-07-21 13:15:00,84.0,76.0,29.92,SSW,196,0.0,0.0,77,0.00,,---,0.00,VWS V14.01,2013-07-21 17:15:00,
2013-07-21 13:20:00,84.5,76.5,29.92,SSW,196,0.0,1.0,77,0.00,,---,0.00,VWS V14.01,2013-07-21 17:20:00,
2013-07-21 13:25:00,85.1,76.3,29.92,West,263,0.0,1.0,75,0.00,,---,0.00,VWS V14.01,2013-07-21 17:25:00,
2013-07-21 13:30:00,85.5,76.7,29.92,NW,305,0.0,6.0,75,0.00,,---,0.00,VWS V14.01,2013-07-21 17:30:00,
2013-07-21 13:35:00,85.7,76.9,29.91,NW,305,0.0,0.0,75,0.00,,---,0.00,VWS V14.01,2013-07-21 17:35:00,
2013-07-21 13:40:00,85.7,76.1,29.91,WSW,254,0.0,0.0,73,0.00,,---,0.00,VWS V14.01,2013-07-21 17:40:00,
2013-07-21 13:45:00,85.3,77.3,29.91,West,261,0.0,0.0,77,0.00,,---,0.00,VWS V14.01,2013-07-21 17:45:00,
2013-07-21 13:50:00,85.3,77.7,29.91,West,261,0.0,0.0,78,0.00,,---,0.00,VWS V14.01,2013-07-21 17:50:00,
2013-07-21 13:55:00,85.1,76.7,29.91,West,261,0.0,0.0,76,0.00,,---,0.00,VWS V14.01,2013-07-21 17:55:00,
2013-07-21 14:00:00,85.1,75.9,29.91,WSW,256,0.0,3.0,74,0.00,,---,0.00,VWS V14.01,2013-07-21 18:00:00,
2013-07-21 14:05:00,85.5,75.9,29.90,NNE,24,0.0,0.0,73,0.00,,---,0.00,VWS V14.01,2013-07-21 18:05:00,
2013-07-21 14:10:00,86.1,76.0,29.90,West,275,0.0,0.0,72,0.00,,---,0.00,VWS V14.01,2013-07-21 18:10:00,
2013-07-21 14:15:00,86.1,76.8,29.90,West,275,0.0,0.0,74,0.00,,---,0.00,VWS V14.01,2013-07-21 18:15:00,
2013-07-21 14:20:00,86.1,76.8,29.90,West,275,0.0,0.0,74,0.00,,---,0.00,VWS V14.01,2013-07-21 18:20:00,
2013-07-21 14:25:00,86.3,75.4,29.90,West,275,0.0,0.0,70,0.00,,---,0.00,VWS V14.01,2013-07-21 18:25:00,
2013-07-21 14:30:00,86.5,76.0,29.90,West,274,0.0,0.0,71,0.00,,---,0.00,VWS V14.01,2013-07-21 18:30:00,
2013-07-21 14:35:00,87.0,77.3,29.89,North,11,0.0,5.0,73,0.00,,---,0.00,VWS V14.01,2013-07-21 18:35:00,
2013-07-21 14:40:00,87.4,76.4,29.89,WNW,289,0.0,5.0,70,0.00,,---,0.00,VWS V14.01,2013-07-21 18:40:00,
2013-07-21 14:45:00,87.8,76.4,29.89,SSW,206,0.0,0.0,69,0.00,,---,0.00,VWS V14.01,2013-07-21 18:45:00,
2013-07-21 14:50:00,88.0,76.6,29.89,NNE,23,0.0,0.0,69,0.00,,---,0.00,VWS V14.01,2013-07-21 18:50:00,
2013-07-21 14:55:00,88.2,77.6,29.89,NE,40,0.0,0.0,71,0.00,,---,0.00,VWS V14.01,2013-07-21 18:55:00,
2013-07-21 15:00:00,88.2,77.6,29.89,ESE,104,0.0,7.0,71,0.00,,---,0.00,VWS V14.01,2013-07-21 19:00:00,
2013-07-21 15:05:00,88.2,77.6,29.88,East,100,0.0,0.0,71,0.00,,---,0.00,VWS V14.01,2013-07-21 19:05:00,
2013-07-21 15:10:00,87.8,78.1,29.88,SE,126,0.0,8.0,73,0.00,,---,0.00,VWS V14.01,2013-07-21 19:10:00,
2013-07-21 15:15:00,87.4,77.7,29.88,ESE,120,0.0,0.0,73,0.00,,---,0.00,VWS V14.01,2013-07-21 19:15:00,
2013-07-21 15:20:00,86.7,77.4,29.88,NE,52,0.0,0.0,74,0.00,,---,0.00,VWS V14.01,2013-07-21 19:20:00,
2013-07-21 15:25:00,85.7,76.9,29.88,WSW,247,0.0,0.0,75,0.00,,---,0.00,VWS V14.01,2013-07-21 19:25:00,
2013-07-21 15:30:00,84.9,76.1,29.88,NNW,343,0.0,5.0,75,0.00,,---,0.00,VWS V14.01,2013-07-21 19:30:00,
2013-07-21 15:35:00,84.3,75.5,29.87,NNW,336,0.0,0.0,75,0.00,,---,0.00,VWS V14.01,2013-07-21 19:35:00,
2013-07-21 15:40:00,83.8,74.6,29.87,WSW,244,0.0,1.0,74,0.00,,---,0.00,VWS V14.01,2013-07-21 19:40:00,
2013-07-21 15:45:00,83.2,74.8,29.87,South,171,0.0,1.0,76,0.00,,---,0.00,VWS V14.01,2013-07-21 19:45:00,
2013-07-21 15:50:00,82.8,75.2,29.86,SSE,162,0.0,1.0,78,0.00,,---,0.00,VWS V14.01,2013-07-21 19:50:00,
2013-07-21 15:55:00,82.6,74.7,29.86,West,267,0.0,0.0,77,0.00,,---,0.00,VWS V14.01,2013-07-21 19:55:00,
2013-07-21 16:00:00,82.6,74.7,29.86,WNW,282,1.0,5.0,77,0.00,,---,0.00,VWS V14.01,2013-07-21 20:00:00,
2013-07-21 16:05:00,82.6,74.7,29.86,WNW,285,0.0,3.0,77,0.00,,---,0.00,VWS V14.01,2013-07-21 20:05:00,
2013-07-21 16:10:00,83.0,75.8,29.86,South,182,0.0,3.0,79,0.00,,---,0.00,VWS V14.01,2013-07-21 20:10:00,
2013-07-21 16:15:00,83.2,75.6,29.86,South,184,0.0,0.0,78,0.00,,---,0.00,VWS V14.01,2013-07-21 20:15:00,
2013-07-21 16:20:00,83.4,74.7,29.86,South,191,0.0,1.0,75,0.00,,---,0.00,VWS V14.01,2013-07-21 20:20:00,
2013-07-21 16:25:00,83.6,74.8,29.86,NW,326,0.0,1.0,75,0.00,,---,0.00,VWS V14.01,2013-07-21 20:25:00,
2013-07-21 16:30:00,83.6,75.6,29.86,SE,131,0.0,1.0,77,0.00,,---,0.00,VWS V14.01,2013-07-21 20:30:00,
2013-07-21 16:35:00,83.6,74.8,29.86,SE,131,0.0,1.0,75,0.00,,---,0.00,VWS V14.01,2013-07-21 20:35:00,
2013-07-21 16:40:00,83.4,75.1,29.86,SE,131,0.0,1.0,76,0.00,,---,0.00,VWS V14.01,2013-07-21 20:40:00,
2013-07-21 16:45:00,83.2,75.6,29.86,East,89,0.0,0.0,78,0.00,,---,0.00,VWS V14.01,2013-07-21 20:45:00,
2013-07-21 16:50:00,83.2,76.0,29.86,East,88,0.0,1.0,79,0.00,,---,0.00,VWS V14.01,2013-07-21 20:50:00,
2013-07-21 16:55:00,83.2,76.0,29.86,East,93,0.0,0.0,79,0.00,,---,0.00,VWS V14.01,2013-07-21 20:55:00,
2013-07-21 17:00:00,83.2,75.2,29.86,East,93,0.0,0.0,77,0.00,,---,0.00,VWS V14.01,2013-07-21 21:00:00,
2013-07-21 17:05:00,83.2,75.6,29.86,ESE,106,0.0,5.0,78,0.00,,---,0.00,VWS V14.01,2013-07-21 21:05:00,
2013-07-21 17:10:00,83.4,76.2,29.86,NW,312,0.0,5.0,79,0.00,,---,0.00,VWS V14.01,2013-07-21 21:10:00,
2013-07-21 17:15:00,83.6,76.4,29.86,South,172,0.0,2.0,79,0.00,,---,0.00,VWS V14.01,2013-07-21 21:15:00,
2013-07-21 17:20:00,83.6,77.2,29.86,ENE,65,0.0,7.0,81,0.00,,---,0.00,VWS V14.01,2013-07-21 21:20:00,
2013-07-21 17:25:00,83.6,77.2,29.86,ENE,64,0.0,2.0,81,0.00,,---,0.00,VWS V14.01,2013-07-21 21:25:00,
2013-07-21 17:30:00,83.8,77.3,29.86,WNW,302,0.0,2.0,81,0.00,,---,0.00,VWS V14.01,2013-07-21 21:30:00,
2013-07-21 17:35:00,83.8,77.7,29.86,WNW,295,0.0,0.0,82,0.00,,---,0.00,VWS V14.01,2013-07-21 21:35:00,
2013-07-21 17:40:00,83.8,78.1,29.86,ESE,123,0.0,3.0,83,0.00,,---,0.00,VWS V14.01,2013-07-21 21:40:00,
2013-07-21 17:45:00,83.8,77.7,29.86,ESE,123,0.0,0.0,82,0.00,,---,0.00,VWS V14.01,2013-07-21 21:45:00,
2013-07-21 17:50:00,83.8,78.1,29.86,East,88,0.0,1.0,83,0.00,,---,0.00,VWS V14.01,2013-07-21 21:50:00,
2013-07-21 17:55:00,83.6,77.5,29.86,East,88,0.0,0.0,82,0.00,,---,0.00,VWS V14.01,2013-07-21 21:55:00,
2013-07-21 18:00:00,83.4,77.3,29.86,WNW,292,0.0,0.0,82,0.00,,---,0.00,VWS V14.01,2013-07-21 22:00:00,
2013-07-21 18:05:00,83.4,77.3,29.85,West,261,0.0,0.0,82,0.00,,---,0.00,VWS V14.01,2013-07-21 22:05:00,
2013-07-21 18:10:00,83.2,76.8,29.85,West,261,0.0,0.0,81,0.00,,---,0.00,VWS V14.01,2013-07-21 22:10:00,
2013-07-21 18:15:00,83.0,76.9,29.85,NW,311,0.0,0.0,82,0.00,,---,0.00,VWS V14.01,2013-07-21 22:15:00,
2013-07-21 18:20:00,82.8,77.1,29.85,West,265,0.0,1.0,83,0.00,,---,0.00,VWS V14.01,2013-07-21 22:20:00,
2013-07-21 18:25:00,82.8,76.8,29.85,West,265,0.0,0.0,82,0.00,,---,0.00,VWS V14.01,2013-07-21 22:25:00,
2013-07-21 18:30:00,82.8,76.8,29.85,WNW,301,0.0,0.0,82,0.00,,---,0.00,VWS V14.01,2013-07-21 22:30:00,
2013-07-21 18:35:00,82.8,77.1,29.86,WNW,301,0.0,0.0,83,0.00,,---,0.00,VWS V14.01,2013-07-21 22:35:00,
2013-07-21 18:40:00,82.6,76.9,29.86,WNW,301,0.0,0.0,83,0.00,,---,0.00,VWS V14.01,2013-07-21 22:40:00,
2013-07-21 18:45:00,82.6,76.6,29.86,ESE,110,0.0,0.0,82,0.00,,---,0.00,VWS V14.01,2013-07-21 22:45:00,
2013-07-21 18:50:00,82.6,76.9,29.86,ESE,110,0.0,0.0,83,0.00,,---,0.00,VWS V14.01,2013-07-21 22:50:00,
2013-07-21 18:55:00,82.6,76.6,29.86,ESE,110,0.0,0.0,82,0.00,,---,0.00,VWS V14.01,2013-07-21 22:55:00,
2013-07-21 19:00:00,82.6,76.9,29.86,ESE,110,0.0,0.0,83,0.00,,---,0.00,VWS V14.01,2013-07-21 23:00:00,
2013-07-21 19:05:00,82.6,76.9,29.85,West,263,0.0,1.0,83,0.00,,---,0.00,VWS V14.01,2013-07-21 23:05:00,
2013-07-21 19:10:00,82.6,76.6,29.85,SE,143,0.0,1.0,82,0.00,,---,0.00,VWS V14.01,2013-07-21 23:10:00,
2013-07-21 19:15:00,82.6,76.6,29.85,SW,217,0.0,0.0,82,0.00,,---,0.00,VWS V14.01,2013-07-21 23:15:00,
2013-07-21 19:20:00,82.8,77.1,29.86,SSW,199,0.0,0.0,83,0.00,,---,0.00,VWS V14.01,2013-07-21 23:20:00,
2013-07-21 19:25:00,82.6,76.9,29.86,SW,223,1.0,3.0,83,0.00,,---,0.00,VWS V14.01,2013-07-21 23:25:00,
2013-07-21 19:30:00,82.6,76.9,29.86,WSW,240,0.0,3.0,83,0.00,,---,0.00,VWS V14.01,2013-07-21 23:30:00,
2013-07-21 19:35:00,82.6,76.9,29.86,WSW,240,0.0,0.0,83,0.00,,---,0.00,VWS V14.01,2013-07-21 23:35:00,
2013-07-21 19:40:00,82.4,76.7,29.86,NNW,333,0.0,0.0,83,0.00,,---,0.00,VWS V14.01,2013-07-21 23:40:00,
2013-07-21 19:45:00,82.4,77.1,29.86,NNW,333,0.0,0.0,84,0.00,,---,0.00,VWS V14.01,2013-07-21 23:45:00,
2013-07-21 19:50:00,82.4,77.1,29.87,NNW,332,0.0,0.0,84,0.00,,---,0.00,VWS V14.01,2013-07-21 23:50:00,
2013-07-21 19:55:00,82.2,76.9,29.87,NNW,333,0.0,0.0,84,0.00,,---,0.00,VWS V14.01,2013-07-21 23:55:00,
2013-07-21 20:00:00,82.2,76.9,29.87,NNW,346,0.0,1.0,84,0.00,,---,0.00,VWS V14.01,2013-07-22 00:00:00,
2013-07-21 20:05:00,82.0,77.1,29.87,NNW,346,0.0,0.0,85,0.00,,---,0.00,VWS V14.01,2013-07-22 00:05:00,
2013-07-21 20:10:00,82.0,77.1,29.87,NNW,346,0.0,0.0,85,0.00,,---,0.00,VWS V14.01,2013-07-22 00:10:00,
2013-07-21 20:15:00,81.8,76.8,29.87,NNW,346,0.0,0.0,85,0.00,,---,0.00,VWS V14.01,2013-07-22 00:15:00,
2013-07-21 20:20:00,81.8,77.2,29.88,NNW,346,0.0,0.0,86,0.00,,---,0.00,VWS V14.01,2013-07-22 00:20:00,
2013-07-21 20:25:00,81.8,77.2,29.88,NNW,346,0.0,0.0,86,0.00,,---,0.00,VWS V14.01,2013-07-22 00:25:00,
2013-07-21 20:30:00,81.6,77.0,29.88,NNW,346,0.0,0.0,86,0.00,,---,0.00,VWS V14.01,2013-07-22 00:30:00,
2013-07-21 20:35:00,81.6,77.0,29.88,NNW,346,0.0,0.0,86,0.00,,---,0.00,VWS V14.01,2013-07-22 00:35:00,
2013-07-21 20:40:00,81.4,77.2,29.88,NNW,346,0.0,0.0,87,0.00,,---,0.00,VWS V14.01,2013-07-22 00:40:00,
2013-07-21 20:45:00,81.4,77.2,29.88,NNW,335,0.0,0.0,87,0.00,,---,0.00,VWS V14.01,2013-07-22 00:45:00,
2013-07-21 20:50:00,81.4,77.2,29.88,NNW,335,0.0,0.0,87,0.00,,---,0.00,VWS V14.01,2013-07-22 00:50:00,
2013-07-21 20:55:00,81.2,77.0,29.88,NNW,335,0.0,0.0,87,0.00,,---,0.00,VWS V14.01,2013-07-22 00:55:00,
2013-07-21 21:00:00,81.2,77.0,29.88,NNW,335,0.0,0.0,87,0.00,,---,0.00,VWS V14.01,2013-07-22 01:00:00,
2013-07-21 21:05:00,81.1,76.9,29.89,NNW,335,0.0,0.0,87,0.00,,---,0.00,VWS V14.01,2013-07-22 01:05:00,
2013-07-21 21:10:00,81.1,77.2,29.89,NNW,335,0.0,0.0,88,0.00,,---,0.00,VWS V14.01,2013-07-22 01:10:00,
2013-07-21 21:15:00,81.1,77.2,29.89,NNW,335,0.0,0.0,88,0.00,,---,0.00,VWS V14.01,2013-07-22 01:15:00,
2013-07-21 21:20:00,80.9,77.0,29.90,NNW,335,0.0,0.0,88,0.00,,---,0.00,VWS V14.01,2013-07-22 01:20:00,
2013-07-21 21:25:00,80.9,77.0,29.90,NNW,335,0.0,0.0,88,0.00,,---,0.00,VWS V14.01,2013-07-22 01:25:00,
2013-07-21 21:30:00,80.9,77.4,29.90,NNW,335,0.0,0.0,89,0.00,,---,0.00,VWS V14.01,2013-07-22 01:30:00,
2013-07-21 21:35:00,80.7,76.8,29.90,NNW,335,0.0,0.0,88,0.00,,---,0.00,VWS V14.01,2013-07-22 01:35:00,
2013-07-21 21:40:00,80.7,76.8,29.90,NNW,335,0.0,0.0,88,0.00,,---,0.00,VWS V14.01,2013-07-22 01:40:00,
2013-07-21 21:45:00,80.7,76.8,29.90,NNW,335,0.0,0.0,88,0.00,,---,0.00,VWS V14.01,2013-07-22 01:45:00,
2013-07-21 21:50:00,80.5,77.0,29.89,NNW,335,0.0,0.0,89,0.00,,---,0.00,VWS V14.01,2013-07-22 01:50:00,
2013-07-21 21:55:00,80.5,77.0,29.89,NNW,335,0.0,0.0,89,0.00,,---,0.00,VWS V14.01,2013-07-22 01:55:00,
2013-07-21 22:00:00,80.5,77.0,29.89,NNW,335,0.0,0.0,89,0.00,,---,0.00,VWS V14.01,2013-07-22 02:00:00,
2013-07-21 22:05:00,80.3,76.8,29.90,NNW,335,0.0,0.0,89,0.00,,---,0.00,VWS V14.01,2013-07-22 02:05:00,
2013-07-21 22:10:00,80.3,76.8,29.90,NNW,335,0.0,0.0,89,0.00,,---,0.00,VWS V14.01,2013-07-22 02:10:00,
2013-07-21 22:15:00,80.1,76.6,29.90,NNW,335,0.0,0.0,89,0.00,,---,0.00,VWS V14.01,2013-07-22 02:15:00,
2013-07-21 22:20:00,80.1,76.6,29.90,NNW,335,0.0,0.0,89,0.00,,---,0.00,VWS V14.01,2013-07-22 02:20:00,
2013-07-21 22:25:00,79.9,76.4,29.90,NNW,335,0.0,0.0,89,0.00,,---,0.00,VWS V14.01,2013-07-22 02:25:00,
2013-07-21 22:30:00,79.9,76.4,29.90,NNW,335,0.0,0.0,89,0.00,,---,0.00,VWS V14.01,2013-07-22 02:30:00,
2013-07-21 22:35:00,79.8,76.3,29.89,NNW,335,0.0,0.0,89,0.00,,---,0.00,VWS V14.01,2013-07-22 02:35:00,
2013-07-21 22:40:00,79.8,76.3,29.89,NNW,335,0.0,0.0,89,0.00,,---,0.00,VWS V14.01,2013-07-22 02:40:00,
2013-07-21 22:45:00,79.6,76.4,29.89,NNW,335,0.0,0.0,90,0.00,,---,0.00,VWS V14.01,2013-07-22 02:45:00,
2013-07-21 22:50:00,79.6,76.4,29.90,NNW,335,0.0,0.0,90,0.00,,---,0.00,VWS V14.01,2013-07-22 02:50:00,
2013-07-21 22:55:00,79.4,76.2,29.90,NNW,335,0.0,0.0,90,0.00,,---,0.00,VWS V14.01,2013-07-22 02:55:00,
2013-07-21 23:00:00,79.4,76.2,29.90,NNW,335,0.0,0.0,90,0.00,,---,0.00,VWS V14.01,2013-07-22 03:00:00,
2013-07-21 23:05:00,79.4,76.2,29.90,NNW,335,0.0,0.0,90,0.00,,---,0.00,VWS V14.01,2013-07-22 03:05:00,
2013-07-21 23:10:00,79.4,76.6,29.90,NNW,335,0.0,0.0,91,0.00,,---,0.00,VWS V14.01,2013-07-22 03:10:00,
2013-07-21 23:15:00,79.2,76.3,29.90,NNW,335,0.0,0.0,91,0.00,,---,0.00,VWS V14.01,2013-07-22 03:15:00,
2013-07-21 23:20:00,79.2,76.7,29.89,NNW,335,0.0,0.0,92,0.00,,---,0.00,VWS V14.01,2013-07-22 03:20:00,
2013-07-21 23:25:00,79.2,76.7,29.89,NNW,335,0.0,0.0,92,0.00,,---,0.00,VWS V14.01,2013-07-22 03:25:00,
2013-07-21 23:30:00,79.0,76.5,29.89,NNW,335,0.0,0.0,92,0.00,,---,0.00,VWS V14.01,2013-07-22 03:30:00,
2013-07-21 23:35:00,79.0,76.5,29.89,NNW,335,0.0,0.0,92,0.00,,---,0.00,VWS V14.01,2013-07-22 03:35:00,
2013-07-21 23:40:00,79.0,76.8,29.89,NNW,335,0.0,0.0,93,0.00,,---,0.00,VWS V14.01,2013-07-22 03:40:00,
2013-07-21 23:45:00,79.0,76.8,29.89,NNW,335,0.0,0.0,93,0.00,,---,0.00,VWS V14.01,2013-07-22 03:45:00,
2013-07-21 23:50:00,79.0,76.8,29.89,NNW,335,0.0,0.0,93,0.00,,---,0.00,VWS V14.01,2013-07-22 03:50:00,
2013-07-21 23:55:00,78.8,76.9,29.89,NNW,335,0.0,0.0,94,0.00,,---,0.00,VWS V14.01,2013-07-22 03:55:00,